Location: Wald
(31.7579°N, 86.6655°W)
Time: 21:18:31
(UTC+00:00)

ERS-2 - Pass Details

Date: 14 July 2020
Orbit: 494 x 498 km, 98.5° (Epoch: 13 August)

Event Time Altitude Azimuth Distance (km) Brightness Sun altitude
Exits shadow 10:19:27 - 217° (SW) 1,946 4.5 -6.8°
Reaches altitude 10° 10:20:24 10° 227° (SW) 1,687 4.2 -6.7°
Maximum altitude 10:22:33 15° 264° (W) 1,401 3.8 -6.3°
Drops below altitude 10° 10:24:43 10° 300° (WNW) 1,693 4.5 -5.9°
Sets 10:27:31 0° 325° (NW) 2,579 5.7 -5.4°
